SV2BBO-2 Thessaloniki GR current weather conditions

sailwx.info

Wind from 156

Air temperature 29.4° C
Dewpoint 1.0° C

Last reported at 2016-Jul-27 20:47 UTC.
Time now 2016-Jul-27 21:09 UTC

Location: N 40°38' E 022°57'.
View on Google Maps.

See reports from other nearby stations

  
Tides and Currents Weather Stations Pressure Air Temp Water Temp Dewpoint Dewpoint Depression Visibility Wind Speed Wind Dir Waves Ship Positions
date/time (UTC)wind fromknots sea level pressurealtimeterstation pressurevisibilityair tempwater tempwave heightnotes
2016-Jul-27 20:47 156 29.4
2016-Jul-27 20:37 156 2 gusting 2 29.4
2016-Jul-27 20:27 156 29.4
2016-Jul-27 20:17 157 29.4
2016-Jul-27 20:07 170 30.0
2016-Jul-27 19:57 199 2 gusting 3 30.0
2016-Jul-27 19:47 195 2 gusting 2 30.0
2016-Jul-27 19:37 186 2 gusting 3 30.0
2016-Jul-27 19:27 202 2 gusting 3 30.6
2016-Jul-27 19:17 210 2 gusting 3 30.6
2016-Jul-27 19:07 085 30.6
2016-Jul-27 18:57 085 30.6
2016-Jul-27 18:47 085 30.6
2016-Jul-27 18:37 183 2 gusting 3 30.6
2016-Jul-27 18:27 195 3 gusting 3 30.6
2016-Jul-27 18:17 177 2 gusting 4 30.6
2016-Jul-27 18:07 174 2 gusting 4 30.6
2016-Jul-27 17:57 155 2 gusting 3 30.6
2016-Jul-27 17:47 180 3 gusting 4 30.6
2016-Jul-27 17:37 200 4 gusting 5 30.6
2016-Jul-27 17:27 202 2 gusting 3 31.1
2016-Jul-27 17:17 215 2 gusting 3 31.1
2016-Jul-27 17:07 162 3 gusting 3 31.1
2016-Jul-27 16:57 203 3 gusting 3 31.1
2016-Jul-27 16:47 225 3 gusting 4 31.1
2016-Jul-27 16:37 201 4 gusting 5 31.1
2016-Jul-27 16:27 236 3 gusting 4 31.1
2016-Jul-27 16:07 229 4 gusting 5 31.1
2016-Jul-27 15:57 229 3 gusting 3 31.7
2016-Jul-27 15:47 186 4 gusting 5 31.7
2016-Jul-27 15:37 228 4 gusting 4 31.7
2016-Jul-27 15:27 220 3 gusting 3 31.1
2016-Jul-27 15:17 198 3 gusting 5 31.1
2016-Jul-27 15:07 208 2 gusting 5 31.1
2016-Jul-27 14:57 241 4 gusting 4 31.1
2016-Jul-27 14:47 202 3 gusting 6 31.1
2016-Jul-27 14:37 189 3 gusting 5 31.7
2016-Jul-27 14:27 232 2 gusting 4 31.1
2016-Jul-27 14:17 217 4 gusting 5 31.1
2016-Jul-27 14:07 195 3 gusting 4 31.1
2016-Jul-27 13:57 242 4 gusting 5 31.7
2016-Jul-27 13:47 212 4 gusting 5 31.7
2016-Jul-27 13:37 228 4 gusting 5 31.7
2016-Jul-27 13:27 231 4 gusting 6 31.7
2016-Jul-27 13:17 216 5 gusting 5 31.7
2016-Jul-27 13:07 213 5 gusting 6 31.1
2016-Jul-27 12:57 231 5 gusting 7 31.1
2016-Jul-27 12:47 193 4 gusting 5 30.6
2016-Jul-27 12:37 230 3 gusting 6 30.6
2016-Jul-27 12:27 197 3 gusting 5 30.6
2016-Jul-27 12:17 195 3 gusting 4 30.6
2016-Jul-27 12:07 199 4 gusting 5 30.6
2016-Jul-27 11:57 220 3 gusting 6 30.6
2016-Jul-27 11:47 218 4 gusting 6 30.6
2016-Jul-27 11:37 266 5 gusting 5 30.6
2016-Jul-27 11:27 217 3 gusting 6 30.6
2016-Jul-27 11:17 255 3 gusting 6 30.0
2016-Jul-27 11:07 261 5 gusting 6 30.0
2016-Jul-27 10:57 255 4 gusting 6 30.0
2016-Jul-27 10:47 235 4 gusting 7 30.0
2016-Jul-27 10:37 250 4 gusting 6 30.0
2016-Jul-27 10:27 204 4 gusting 6 30.0
2016-Jul-27 10:17 274 3 gusting 5 30.0
2016-Jul-27 10:07 212 5 gusting 7 30.0
2016-Jul-27 09:57 260 5 gusting 6 30.0
2016-Jul-27 09:47 291 6 gusting 10 29.4
2016-Jul-27 09:37 276 4 gusting 6 30.0
2016-Jul-27 09:27 289 8 gusting 10 30.0
2016-Jul-27 09:17 267 8 gusting 13 30.0
2016-Jul-27 09:07 248 5 gusting 8 30.0
2016-Jul-27 08:57 244 5 gusting 6 30.6
2016-Jul-27 08:47 204 6 gusting 7 30.6
2016-Jul-27 08:37 273 5 gusting 10 30.6
2016-Jul-27 08:27 250 4 gusting 6 30.6
2016-Jul-27 08:17 261 5 gusting 6 30.0
2016-Jul-27 08:07 280 4 gusting 6 29.4
2016-Jul-27 07:57 311 6 gusting 6 30.0
2016-Jul-27 07:47 298 5 gusting 7 30.0
2016-Jul-27 07:37 255 3 gusting 6 29.4
2016-Jul-27 07:27 323 5 gusting 3 28.9
2016-Jul-27 07:17 331 4 gusting 4 28.3
2016-Jul-27 07:07 281 6 gusting 7 27.8
2016-Jul-27 06:57 291 4 gusting 6 27.8
2016-Jul-27 06:47 294 2 gusting 8 27.8
2016-Jul-27 06:37 288 3 gusting 5 27.8
2016-Jul-27 06:27 350 0 gusting 3 27.8
2016-Jul-27 06:17 293 2 gusting 2 27.8
2016-Jul-27 06:07 327 2 gusting 3 27.8
2016-Jul-27 05:57 315 0 gusting 2 28.3
2016-Jul-27 05:47 353 2 gusting 3 27.2
2016-Jul-27 05:37 341 2 gusting 3 26.7
2016-Jul-27 05:27 300 4 gusting 4 26.7
2016-Jul-27 05:17 340 3 gusting 4 26.7
2016-Jul-27 05:07 352 1 gusting 4 26.1
2016-Jul-27 04:57 052 3 gusting 3 26.1
2016-Jul-27 04:47 186 4 gusting 5 26.7
2016-Jul-27 04:37 117 2 gusting 3 26.7
2016-Jul-27 04:27 168 3 gusting 4 27.2
2016-Jul-27 04:17 154 4 gusting 4 27.2
2016-Jul-27 04:07 153 3 gusting 4 27.2
2016-Jul-27 03:57 155 4 gusting 3 27.2
2016-Jul-27 03:47 076 2 gusting 3 27.8
2016-Jul-27 03:37 102 3 gusting 4 27.2
2016-Jul-27 03:27 077 27.2
2016-Jul-27 03:17 090 2 gusting 3 27.2
2016-Jul-27 03:07 087 2 gusting 4 27.8
2016-Jul-27 02:57 101 0 gusting 2 27.8
2016-Jul-27 02:47 342 1 gusting 2 27.2
2016-Jul-27 02:37 342 0 gusting 2 27.8
2016-Jul-27 02:27 291 27.8
2016-Jul-27 02:17 290 1 gusting 3 27.8
2016-Jul-27 02:07 314 27.8
2016-Jul-27 01:57 314 27.8
2016-Jul-27 01:47 315 0 gusting 2 27.8
2016-Jul-27 01:37 345 2 gusting 4 27.8
2016-Jul-27 01:27 300 4 gusting 5 27.8
2016-Jul-27 01:17 336 4 gusting 5 27.8
2016-Jul-27 01:07 295 3 gusting 4 27.8
2016-Jul-27 00:57 321 4 gusting 5 27.8
2016-Jul-27 00:47 326 4 gusting 4 27.8
2016-Jul-27 00:37 004 5 gusting 6 27.8
2016-Jul-27 00:27 340 4 gusting 6 27.8
2016-Jul-27 00:17 002 3 gusting 5 28.3
2016-Jul-27 00:07 308 3 gusting 4 28.3
2016-Jul-26 23:57 358 3 gusting 4 28.3
2016-Jul-26 23:47 28.3
2016-Jul-26 23:37 016 3 gusting 5 28.3
2016-Jul-26 23:27 012 6 gusting 6 28.3
2016-Jul-26 23:17 050 3 gusting 6 28.3
2016-Jul-26 23:07 032 3 gusting 4 28.3
2016-Jul-26 22:57 016 3 gusting 3 28.3
2016-Jul-26 22:47 024 2 gusting 6 28.3
2016-Jul-26 22:37 355 4 gusting 5 28.3
2016-Jul-26 22:27 008 0 gusting 2 28.3
2016-Jul-26 22:17 357 3 gusting 4 28.3
2016-Jul-26 22:07 001 4 gusting 5 28.3
2016-Jul-26 21:57 345 2 gusting 3 28.3
2016-Jul-26 21:47 335 4 gusting 4 28.3
2016-Jul-26 21:37 308 3 gusting 3 28.3
2016-Jul-26 21:27 310 2 gusting 2 28.3
2016-Jul-26 21:17 327 3 gusting 4 28.9
2016-Jul-26 21:07 323 4 gusting 5 28.9
2016-Jul-26 20:57 302 3 gusting 5 28.9
2016-Jul-26 20:47 295 2 gusting 5 28.9
2016-Jul-26 20:37 349 4 gusting 6 28.9
2016-Jul-26 20:27 279 3 gusting 3 28.9
2016-Jul-26 20:17 287 4 gusting 6 28.9
2016-Jul-26 20:07 285 3 gusting 4 28.9
2016-Jul-26 19:57 285 2 gusting 4 28.9
2016-Jul-26 19:47 298 3 gusting 5 28.9
2016-Jul-26 19:37 207 2 gusting 3 28.9
2016-Jul-26 19:27 271 2 gusting 3 28.9
2016-Jul-26 19:17 256 2 gusting 3 29.4
2016-Jul-26 19:07 212 3 gusting 3 29.4
2016-Jul-26 18:57 210 3 gusting 3 29.4
2016-Jul-26 18:47 221 3 gusting 5 29.4
2016-Jul-26 18:37 259 0 gusting 4 30.0
2016-Jul-26 18:27 164 2 gusting 5 30.0
2016-Jul-26 18:17 118 1 gusting 2 30.0
2016-Jul-26 18:07 118 30.6
2016-Jul-26 17:57 092 3 gusting 4 30.6
2016-Jul-26 17:47 094 2 gusting 4 30.6
2016-Jul-26 17:37 095 2 gusting 2 30.6
2016-Jul-26 17:27 200 0 gusting 2 30.6
2016-Jul-26 17:17 088 0 gusting 2 30.6
2016-Jul-26 17:07 074 2 gusting 3 30.0
2016-Jul-26 16:57 127 2 gusting 3 30.6
2016-Jul-26 16:47 087 30.6
2016-Jul-26 16:37 120 2 gusting 3 30.6
2016-Jul-26 16:27 162 2 gusting 2 31.1
2016-Jul-26 16:17 175 3 gusting 4 31.1
2016-Jul-26 16:07 143 3 gusting 3 31.1
2016-Jul-26 15:57 181 6 gusting 7 31.1
2016-Jul-26 15:47 190 3 gusting 6 31.1
2016-Jul-26 15:37 123 4 gusting 4 31.1
2016-Jul-26 15:27 205 4 gusting 3 32.2
2016-Jul-26 15:17 182 4 gusting 5 32.2
2016-Jul-26 15:07 241 3 gusting 6 32.2
2016-Jul-26 14:57 261 6 gusting 6 32.2
2016-Jul-26 14:47 211 3 gusting 7 32.2
2016-Jul-26 14:37 246 4 gusting 6 32.2
2016-Jul-26 14:27 205 4 gusting 7 32.8
2016-Jul-26 14:17 226 5 gusting 6 33.3
2016-Jul-26 14:07 225 4 gusting 7 33.3
2016-Jul-26 13:57 232 5 gusting 5 33.3
2016-Jul-26 13:47 246 5 gusting 10 33.3
2016-Jul-26 13:37 283 3 gusting 6 33.3
2016-Jul-26 13:27 225 4 gusting 7 32.8
2016-Jul-26 13:17 209 5 gusting 8 32.8
2016-Jul-26 13:07 221 5 gusting 7 32.8
2016-Jul-26 12:57 212 4 gusting 4 32.2
2016-Jul-26 12:47 218 5 gusting 7 33.3
2016-Jul-26 12:37 309 7 gusting 9 32.8
2016-Jul-26 12:27 229 5 gusting 7 32.8
2016-Jul-26 12:17 249 6 gusting 8 32.8
2016-Jul-26 12:07 276 6 gusting 8 32.8
2016-Jul-26 11:57 268 6 gusting 8 33.3
2016-Jul-26 11:47 244 6 gusting 8 33.3
2016-Jul-26 11:37 207 5 gusting 8 32.8
2016-Jul-26 11:27 240 4 gusting 5 32.8
2016-Jul-26 11:17 328 3 gusting 6 32.8
2016-Jul-26 11:07 258 4 gusting 6 32.8
2016-Jul-26 10:57 247 3 gusting 6 32.8
2016-Jul-26 10:47 350 3 gusting 6 32.2
2016-Jul-26 10:37 299 5 gusting 8 32.2
2016-Jul-26 10:27 299 4 gusting 6 32.2
2016-Jul-26 10:17 286 3 gusting 11 32.2
2016-Jul-26 10:07 325 4 gusting 6 32.2
2016-Jul-26 09:57 323 3 gusting 3 31.7
2016-Jul-26 09:47 278 6 gusting 9 31.7
2016-Jul-26 09:37 245 3 gusting 5 31.7
2016-Jul-26 09:27 244 4 gusting 3 31.7
2016-Jul-26 09:17 310 4 gusting 3 31.7
2016-Jul-26 09:07 333 3 gusting 8 31.7
2016-Jul-26 08:57 337 1 gusting 3 31.7
2016-Jul-26 08:47 021 5 gusting 5 31.7
2016-Jul-26 08:37 010 3 gusting 3 31.7
2016-Jul-26 08:27 342 2 gusting 4 32.2
2016-Jul-26 08:17 028 4 gusting 5 31.7
2016-Jul-26 08:07 033 4 gusting 5 31.1
2016-Jul-26 07:57 018 2 gusting 5 31.7
2016-Jul-26 07:47 357 5 gusting 6 31.7
2016-Jul-26 07:37 005 4 gusting 7 31.1
2016-Jul-26 07:27 340 5 gusting 6 31.1
2016-Jul-26 07:17 334 6 gusting 5 30.6
2016-Jul-26 07:07 285 5 gusting 6 30.6
2016-Jul-26 06:57 267 2 gusting 5 30.6
2016-Jul-26 06:47 308 0 gusting 2 29.4
2016-Jul-26 06:37 308 3 gusting 3 29.4
2016-Jul-26 06:27 044 1 gusting 3 29.4
2016-Jul-26 06:17 044 28.9
2016-Jul-26 06:07 044 4 gusting 4 28.3
2016-Jul-26 05:57 042 3 gusting 6 28.3
2016-Jul-26 05:47 049 5 gusting 6 28.3
2016-Jul-26 05:37 345 3 gusting 3 28.3
2016-Jul-26 05:27 002 2 gusting 3 28.3
2016-Jul-26 05:17 047 3 gusting 3 28.3
2016-Jul-26 05:07 353 4 gusting 5 28.9
2016-Jul-26 04:57 093 0 gusting 2 28.9
2016-Jul-26 04:47 093 28.9
2016-Jul-26 04:37 093 0 gusting 2 28.9
2016-Jul-26 04:27 149 1 gusting 3 28.9
2016-Jul-26 04:17 149 28.3
2016-Jul-26 04:07 149 28.3
2016-Jul-26 03:57 149 28.3
2016-Jul-26 03:47 149 28.3
2016-Jul-26 03:37 149 0 gusting 2 28.3
2016-Jul-26 03:27 149 2 gusting 3 28.3
2016-Jul-26 03:17 150 28.3
2016-Jul-26 03:07 150 28.3
2016-Jul-26 02:57 149 0 gusting 3 28.3
2016-Jul-26 02:47 149 2 gusting 3 28.3
2016-Jul-26 02:37 150 3 gusting 3 28.3
2016-Jul-26 02:27 103 2 gusting 3 28.9
2016-Jul-26 02:17 075 2 gusting 3 28.9
2016-Jul-26 02:07 077 2 gusting 3 28.9
2016-Jul-26 01:57 071 2 gusting 3 28.3
2016-Jul-26 01:47 009 28.9
2016-Jul-26 01:37 290 28.9
2016-Jul-26 01:27 290 28.9
2016-Jul-26 01:17 004 28.9
2016-Jul-26 01:07 004 28.9
2016-Jul-26 00:57 004 28.9
2016-Jul-26 00:47 004 28.9
2016-Jul-26 00:37 004 28.9
2016-Jul-26 00:27 004 28.9
2016-Jul-26 00:17 004 28.9
2016-Jul-26 00:07 004 28.9
2016-Jul-25 23:57 004 28.9
2016-Jul-25 23:47 004 28.9
2016-Jul-25 23:37 004 28.9
2016-Jul-25 23:27 004 0 28.9
2016-Jul-25 23:17 004 28.9
2016-Jul-25 23:07 004 29.4
2016-Jul-25 22:57 004 29.4
2016-Jul-25 22:47 004 1 gusting 2 29.4
2016-Jul-25 22:37 004 29.4
2016-Jul-25 22:27 038 1 gusting 3 29.4
2016-Jul-25 22:17 098 0 gusting 3 29.4
2016-Jul-25 22:07 108 2 gusting 3 29.4
2016-Jul-25 21:57 152 29.4
2016-Jul-25 21:47 205 2 gusting 2 29.4
2016-Jul-25 21:37 204 2 gusting 3 29.4
2016-Jul-25 21:27 204 2 gusting 3 29.4
2016-Jul-25 21:17 203 2 gusting 3 29.4
2016-Jul-25 21:07 221 1 gusting 3 29.4